Regional Weather Roundup
Issued by NWS

Home | Current Version | Previous Version | Text Only | Print | Product List | Glossary Off
Versions: 1 2 3 4 5 6 7 8 9 10 11 12 13 14 15 16 17 18 19 20 21 22 23 24 25 26 27 28 29 30 31 32 33 34 35 36 37 38 39 40 41 42 43 44 45 46 47 48 49 50

000
ASUS45 KSLC 070310
RWRUT

UTAH REGIONAL WEATHER ROUNDUP
NATIONAL WEATHER SERVICE SALT LAKE CITY UT
800 PM MST SAT FEB 06 2016

UTZ001>011-023>025-070400-

NORTHERN UTAH

CITY           SKY/WX    TMP DP  RH WIND       PRES   REMARKS
BRIGHAM CITY   PTCLDY    21  18  88 CALM      30.48R
HILL AFB       CLOUDY    30  22  72 E3        30.45R
LOGAN          PTCLDY    19  18  95 SE3       30.46S FOG
OGDEN          CLOUDY    30  24  78 CALM      30.45S
PROVO AIRPORT  MOCLDY    21  16  79 CALM      30.48
SALT LAKE CITY PTCLDY    30  24  78 CALM      30.46S
VERNAL         CLOUDY    11   6  81 CALM      30.45S
WENDOVER       CLEAR     30  25  80 CALM      30.46S
HEBER CITY     PTCLDY    10   7  85 CALM      30.43R
WEST JORDAN    CLEAR     27  21  80 CALM      30.46R

$$

UTZ012>022-026-027-070400-

SOUTHERN/CENTRAL UTAH

CITY           SKY/WX    TMP DP  RH WIND       PRES   REMARKS
BLANDING       PTCLDY    25  18  76 NE6       30.48S WCI  18
BRYCE CANYON   PTCLDY    17   9  70 W8        30.43R WCI   7
CEDAR CITY     PTCLDY    16  13  88 NE8       30.41R WCI   5
DELTA          MOCLDY    12  11  93 CALM      30.47S
HANKSVILLE     MOCLDY    16  14  93 SW3       30.56R
MILFORD        MOCLDY     6   2  83 CALM      30.45R
MOAB/CYNLANDS  MOCLDY     9   7  92 CALM      30.50S
PRICE          MOCLDY    15   9  76 N3        30.43S
ST GEORGE      PTCLDY    43  25  49 SE8       30.38F
KANAB          CLEAR     36  27  69 NE6       30.44R WCI  31

$$

REGIONAL REPORTS     COLORADO/ARIZONA

CITY           SKY/WX    TMP DP  RH WIND       PRES   REMARKS
CRAIG, CO      CLOUDY     5   1  83 CALM      30.40S
GRAND JUNCTION CLOUDY    13  10  88 NW3       30.49S
RIFLE          CLOUDY    17   8  67 S3        30.47R
MONTROSE       CLOUDY    13   7  77 SE6       30.47R WCI   4
CORTEZ         CLOUDY    20  14  77 NE6       30.41S WCI  12
PAGE, AZ       CLEAR     33  22  63 SE5       30.43S WCI  29
GRAND CANYON   CLEAR     25  18  74 CALM      30.39S
KINGMAN        CLEAR     43  23  45 E8        30.31S
FLAGSTAFF      CLEAR     25  16  68 CALM      30.40S

$$

REGIONAL REPORTS    NEVADA/IDAHO/WYOMING

CITY           SKY/WX    TMP DP  RH WIND       PRES   REMARKS
LAS VEGAS, NV  CLEAR     55  24  30 CALM      30.29R
ELY            PTCLDY    17  11  77 S13       30.43S WCI   4
ELKO           CLEAR     16  11  80 CALM      30.46F
POCATELLO, ID  CLOUDY    37  24  59 S17       30.39S WCI  27
BURLEY         MOCLDY    35  27  72 SW8       30.38F WCI  29
EVANSTON, WY   CLOUDY    26  12  55 SW12      30.39R WCI  16
ROCK SPRINGS   CLOUDY    29  18  63 W39G51    30.30S WCI  12

$$



USA.gov is the U.S. government's official web portal to all federal, state and local government web resources and services.